This is the latest recevied weather packets stored in our database for station/object KC5TIL. If no packets are shown the sender has not sent any weather packets the latest 10 day(s).
| Time | Temp. | Humidity | Pressure | Rain* | Wind** | Luminosity | Snow |
|---|---|---|---|---|---|---|---|
| 1787779900 | 38.89° C | 41% | 1013.9 hPa | 0 mm | - | 460 W/m² | - |
| 1787779599 | 38.89° C | 40% | 1013.8 hPa | 0 mm | - | 458 W/m² | - |
| 1787779294 | 38.89° C | 41% | 1013.7 hPa | 0 mm | - | 439 W/m² | - |
| 1787778989 | 38.89° C | 41% | 1014 hPa | 0 mm | - | 448 W/m² | - |
| 1787778685 | 38.89° C | 41% | 1014 hPa | 0 mm | - | 307 W/m² | - |
| 1787778380 | 38.33° C | 42% | 1014.2 hPa | 0 mm | - | 506 W/m² | - |
| 1787778076 | 37.78° C | 43% | 1014.4 hPa | 0 mm | - | 533 W/m² | - |
| 1787777775 | 37.78° C | 45% | 1014.4 hPa | 0 mm | - | 522 W/m² | - |
| 1787777471 | 37.22° C | 45% | 1014.5 hPa | 0 mm | - | 535 W/m² | - |
| 1787777166 | 36.67° C | 46% | 1014.7 hPa | 0 mm | - | 574 W/m² | - |
| 1787776865 | 36.67° C | 46% | 1014.7 hPa | 0 mm | - | 198 W/m² | - |
| 1787776564 | 37.22° C | 46% | 1014.8 hPa | 0 mm | - | 235 W/m² | - |
| 1787776262 | 37.22° C | 45% | 1015 hPa | 0 mm | - | 567 W/m² | - |
| 1787775961 | 37.78° C | 45% | 1014.9 hPa | 0 mm | - | 586 W/m² | - |
| 1787775656 | 36.67° C | 47% | 1015.1 hPa | 0 mm | - | 498 W/m² | - |
| 1787775354 | 36.67° C | 47% | 1015.3 hPa | 0 mm | - | 600 W/m² | - |
| 1787775049 | 35.56° C | 49% | 1015.3 hPa | 0 mm | - | 457 W/m² | - |
| 1787774749 | 36.11° C | 49% | 1015.3 hPa | 0 mm | - | 339 W/m² | - |
| 1787774443 | 35.56° C | 49% | 1015.5 hPa | 0 mm | - | 698 W/m² | - |
| 1787774138 | 35.56° C | 50% | 1015.3 hPa | 0 mm | - | 344 W/m² | - |
| 1787773836 | 35.56° C | 50% | 1015.6 hPa | 0 mm | - | 349 W/m² | - |
| 1787773535 | 35.56° C | 50% | 1015.8 hPa | 0 mm | - | 317 W/m² | - |
| 1787773232 | 35.56° C | 50% | 1015.5 hPa | 0 mm | - | 366 W/m² | - |
| 1787772927 | 34.44° C | 52% | 1015.6 hPa | 0 mm | - | 638 W/m² | - |
| 1787772622 | 34.44° C | 53% | 1015.6 hPa | 0 mm | - | 347 W/m² | - |
* Rain latest hour (hover to see other rain measurements)
** Current wind speed in m/s (hover to see current wind gust speed)